Location: Bear Valley
(38.4650°N, 120.0390°W)
Time: 10:50:58
(UTC-07:00)

Hubble Space Telescope - Visible Passes

Search period start: 20 March 2019 00:00
Search period end: 30 March 2019 00:00
Orbit: 537 x 540 km, 28.5° (Epoch: 19 March)

Date Brightness Start Highest point End Pass type
(mag) Time Alt. Az. Time Alt. Az. Time Alt. Az.
24 Mar 3.2 21:13:35 10° SSW 21:14:11 12° SSW 21:14:11 12° SSW visible
25 Mar 2.8 21:02:49 10° SW 21:04:32 16° SSW 21:04:32 16° SSW visible
26 Mar 2.5 20:52:06 10° SW 20:54:48 19° S 20:54:48 19° S visible
27 Mar 2.4 20:41:27 10° SW 20:44:29 20° S 20:45:02 19° SSE visible
28 Mar 2.4 20:30:50 10° SW 20:33:54 20° S 20:35:13 17° SSE visible
29 Mar 2.5 20:20:16 10° SW 20:23:19 20° S 20:25:23 14° SE visible
